Home > Time Zones > World Clock > Weather > China > Jinan > Past weeks

Flag for China Weather past 2 weeks in Jinan, China

Now
73 °F

Clear.


Feels Like: 77 °F
Forecast: 55 / 84 °F
Wind: 10 mph from Southwest

Location: Tianjin / Zhangguizhu


UV Index: 5 (Moderate)

Visibility: 6 mi


Pressure: 30.01 "Hg

Humidity: 36%

Dew point: 45 °F

Location of JinanLocation

Historic Weather in Jinan

°F

Jinan temperature yesterday

Maximum temperature yesterday: 79 °F (at 2:00 PM)
Minimum temperature yesterday: 59 °F (at 5:30 AM)
Average temperature yesterday: 69 °F

Past Weeks' High & Low Weather Summary

 TemperatureHumidityPressure
High86 °F (Apr 9, 3:00 PM)94% (Apr 13, 3:00 AM)30.24 "Hg (Apr 13, 3:00 AM)
Low46 °F (Apr 12, 5:00 AM)9% (Apr 16, 5:00 PM)29.77 "Hg (Apr 9, 1:00 PM)
Average61 °F49%30.02 "Hg
* Reported Apr 9 10:00 AM — Apr 24 10:30 AM, Jinan, Weather by CustomWeather, © 2014

Note: Actual official high and low records may vary slightly from our data, if they occured in-between our weather recording intervals... More about our weather records

Advertising

Historic Weather Conditions — Data for Previous 24 hours

 ConditionsComfort  
Time TempWeatherWind HumidityBarometerVisibility
10:30 AM
Apr 24
73 °FClear.13 mph36%30.01 "Hg5 mi
10:00 AM72 °FClear.13 mph36%30.01 "Hg5 mi
9:30 AM72 °FClear.13 mph36%30.01 "Hg4 mi
9:00 AM70 °FClear.10 mph38%30.01 "Hg4 mi
8:30 AM68 °FHaze.8 mph40%30.01 "Hg3 mi
8:00 AM66 °FHaze.6 mph43%29.98 "Hg2 mi
7:30 AM64 °FHaze.3 mph49%29.98 "Hg2 mi
7:00 AM63 °FHaze.3 mph56%29.98 "Hg2 mi
6:30 AM63 °FHaze.6 mph56%29.95 "Hg2 mi
6:00 AM61 °FHaze.1 mph59%29.95 "Hg2 mi
5:30 AM61 °FHaze.3 mph59%29.95 "Hg2 mi
5:00 AM59 °FHaze.6 mph63%29.95 "Hg2 mi
4:30 AM61 °FHaze.6 mph59%29.92 "Hg2 mi
4:00 AM61 °FHaze.6 mph63%29.95 "Hg2 mi
3:30 AM61 °FHaze.3 mph63%29.95 "Hg2 mi
3:00 AM61 °FHaze.3 mph68%29.95 "Hg2 mi
2:30 AM63 °FHaze.6 mph59%29.95 "Hg2 mi
2:00 AM64 °FHaze.6 mph60%29.95 "Hg2 mi
1:30 AM64 °FHaze.6 mph60%29.95 "Hg2 mi
1:00 AM64 °FHaze.6 mph60%29.92 "Hg2 mi
12:30 AM64 °FHaze.6 mph60%29.92 "Hg2 mi
12:00 AM64 °FHaze.6 mph60%29.95 "Hg3 mi
11:30 PM
Apr 23
64 °FHaze.6 mph60%29.95 "Hg3 mi
11:00 PM66 °FHaze.3 mph56%29.95 "Hg3 mi
10:30 PM68 °FHaze.6 mph53%29.92 "Hg3 mi
10:00 PM68 °FClear.6 mph49%29.92 "Hg4 mi
9:30 PM68 °FClear.8 mph49%29.89 "Hg4 mi
9:00 PM70 °FClear.6 mph46%29.89 "Hg4 mi
8:30 PM70 °FClear.10 mph46%29.86 "Hg4 mi
8:00 PM70 °FClear.13 mph46%29.86 "Hg4 mi
7:30 PM72 °FClear.13 mph44%29.83 "Hg4 mi
7:00 PM72 °FClear.13 mph44%29.80 "Hg4 mi
6:30 PM73 °FClear.15 mph44%29.80 "Hg4 mi
6:00 PM75 °FClear.13 mph41%29.77 "Hg4 mi
5:30 PM75 °FClear.15 mph41%29.77 "Hg4 mi
5:00 PM75 °FClear.13 mph41%29.77 "Hg4 mi
4:30 PM77 °FClear.15 mph36%29.77 "Hg4 mi
4:00 PM77 °FScattered clouds.15 mph36%29.77 "Hg4 mi
3:30 PM77 °FScattered clouds.13 mph39%29.80 "Hg4 mi
3:00 PM79 °FClear.15 mph37%29.80 "Hg4 mi
2:30 PM79 °FClear.15 mph37%29.80 "Hg4 mi
2:00 PM79 °FClear.13 mph37%29.80 "Hg4 mi
1:30 PM77 °FHaze.17 mph39%29.83 "Hg3 mi
1:00 PM77 °FHaze.13 mph42%29.83 "Hg3 mi
12:30 PM75 °FHaze.13 mph44%29.83 "Hg3 mi
12:00 PM75 °FHaze.13 mph44%29.86 "Hg3 mi
11:30 AM73 °FHaze.8 mph47%29.86 "Hg2 mi
11:00 AM72 °FHaze.10 mph50%29.89 "Hg2 mi
Weather by CustomWeather, © 2014

See weather overview